Location: Chandolas
(44.4033°N, 4.2533°E)
Time: 06:33:44
(UTC+00:00)

CZ-4B R/B - Pass Details

Date: 15 November 2019
Orbit: 809 x 882 km, 99.1° (Epoch: 04 December)

Event Time Altitude Azimuth Distance (km) Brightness Sun altitude
Rises 05:58:05 0° 9° (N) 3,359 6.2 -7.5°
Reaches altitude 10° 06:00:28 10° 4° (N) 2,430 5.5 -7.1°
Maximum altitude 06:05:38 50° 291° (WNW) 1,056 3.4 -6.2°
Drops below altitude 10° 06:10:52 10° 217° (SW) 2,458 5.5 -5.4°
Sets 06:13:18 0° 212° (SSW) 3,400 6.2 -5.0°
